TimeEDT,TemperatureF,Dew PointF,Humidity,Sea Level PressureIn,VisibilityMPH,Wind Direction,Wind SpeedMPH,Gust SpeedMPH,PrecipitationIn,Events,Conditions,WindDirDegrees,DateUTC
12:53 AM,77.0,68.0,74,30.17,10.0,Calm,Calm,-,N/A,,Clear,0,2013-07-05 04:53:00
1:53 AM,75.9,68.0,76,30.18,10.0,Calm,Calm,-,N/A,,Clear,0,2013-07-05 05:53:00
2:53 AM,78.1,68.0,71,30.17,10.0,Variable,5.8,-,N/A,,Clear,0,2013-07-05 06:53:00
3:53 AM,75.0,68.0,79,30.16,10.0,Calm,Calm,-,N/A,,Clear,0,2013-07-05 07:53:00
4:53 AM,75.9,69.1,79,30.16,10.0,Variable,4.6,-,N/A,,Clear,0,2013-07-05 08:53:00
5:53 AM,75.0,68.0,79,30.17,10.0,SSW,4.6,-,N/A,,Clear,200,2013-07-05 09:53:00
6:53 AM,75.0,69.1,82,30.17,10.0,Variable,3.5,-,N/A,,Scattered Clouds,0,2013-07-05 10:53:00
7:53 AM,78.1,69.1,74,30.18,10.0,SSW,3.5,-,N/A,,Clear,200,2013-07-05 11:53:00
8:53 AM,80.1,69.1,69,30.18,10.0,Variable,4.6,-,N/A,,Clear,0,2013-07-05 12:53:00
9:53 AM,82.9,68.0,60,30.18,10.0,WSW,8.1,-,N/A,,Clear,240,2013-07-05 13:53:00
10:53 AM,84.0,69.1,61,30.17,10.0,Variable,4.6,-,N/A,,Clear,0,2013-07-05 14:53:00
11:53 AM,84.9,69.1,59,30.17,10.0,WSW,6.9,-,N/A,,Partly Cloudy,240,2013-07-05 15:53:00
12:28 PM,86.0,69.8,58,30.21,10.0,Variable,6.9,-,N/A,,Mostly Cloudy,0,2013-07-05 16:28:00
12:39 PM,86.0,69.8,58,30.21,10.0,WSW,5.8,-,N/A,,Mostly Cloudy,240,2013-07-05 16:39:00
12:53 PM,87.1,70.0,57,30.16,10.0,SW,8.1,-,N/A,,Mostly Cloudy,230,2013-07-05 16:53:00
1:53 PM,88.0,70.0,55,30.15,10.0,SW,10.4,16.1,N/A,,Scattered Clouds,230,2013-07-05 17:53:00
2:53 PM,88.0,70.0,55,30.13,10.0,SW,5.8,-,N/A,,Scattered Clouds,220,2013-07-05 18:53:00
3:53 PM,87.1,69.1,55,30.12,10.0,WSW,6.9,-,N/A,,Scattered Clouds,240,2013-07-05 19:53:00
4:53 PM,87.1,71.1,59,30.10,10.0,Variable,4.6,-,N/A,,Partly Cloudy,0,2013-07-05 20:53:00
5:53 PM,88.0,71.1,57,30.09,10.0,Calm,Calm,-,N/A,,Partly Cloudy,0,2013-07-05 21:53:00
6:53 PM,87.1,70.0,57,30.09,10.0,Calm,Calm,-,N/A,,Clear,0,2013-07-05 22:53:00
7:53 PM,84.9,70.0,61,30.09,10.0,SSW,4.6,-,N/A,,Partly Cloudy,210,2013-07-05 23:53:00
8:53 PM,81.0,70.0,69,30.11,10.0,Calm,Calm,-,N/A,,Clear,0,2013-07-06 00:53:00
9:53 PM,80.1,70.0,71,30.12,10.0,Calm,Calm,-,N/A,,Clear,0,2013-07-06 01:53:00
10:53 PM,81.0,70.0,69,30.12,10.0,SSW,5.8,-,N/A,,Clear,210,2013-07-06 02:53:00
11:53 PM,81.0,70.0,69,30.12,10.0,Variable,5.8,-,N/A,,Clear,0,2013-07-06 03:53:00